Theta_e
315 321 324 326 325 314 309 313 314 316 315 312 313 314 314 314 312 311 311 312 311 311 314 313 311 311 309 307 305 303 303 302 300 300 299 299 298 298 298 297 297 297 296 296 296 296 295 294 293 293 293 292 292 292 292 292 292 292 293 293 293 292 292 292 292 292 292 292 291 290 290 290 291 291 291 291 291 291 291 291 292 294 295 294 294 295
319 322 325 328 319 310 310 312 312 313 311 311 313 313 314 314 312 310 311 312 309 310 314 313 311 311 309 308 305 302 302 301 300 299 299 299 298 298 298 297 297 296 296 295 296 296 295 294 293 293 293 292 292 292 292 292 292 292 293 293 293 292 292 292 292 292 291 291 290 290 290 290 291 291 291 290 290 290 290 290 291 293 294 294 294 294
321 322 323 320 311 308 311 311 312 312 312 313 313 313 314 314 313 313 313 311 308 309 314 312 310 309 309 309 305 301 302 301 300 300 299 299 298 298 298 297 296 296 296 295 295 295 294 293 293 293 293 292 292 292 292 292 292 292 293 292 292 292 292 291 291 291 291 290 290 289 289 290 290 290 290 289 289 289 289 289 290 292 293 293 294 294
321 325 319 311 309 310 311 312 313 312 312 314 314 313 315 314 315 316 314 312 310 309 311 311 308 307 308 309 306 302 301 301 300 300 299 299 298 298 297 297 296 296 296 295 294 294 294 293 293 293 292 292 292 292 292 291 292 292 292 292 292 291 291 291 290 290 290 289 289 289 289 289 288 288 288 288 288 288 289 289 290 291 292 293 293 294
318 318 311 309 312 312 312 314 315 313 315 318 317 314 315 315 315 316 314 312 311 312 312 309 308 309 309 308 306 302 300 300 300 299 299 298 298 298 297 296 295 295 295 294 294 294 293 293 293 292 292 292 291 292 291 291 292 292 292 291 291 291 291 290 290 289 289 289 288 288 288 287 287 287 287 287 287 287 288 288 289 290 291 292 293 293
314 311 309 313 316 315 315 318 318 316 315 318 320 317 315 314 313 315 315 312 311 313 313 309 309 312 310 307 305 301 300 300 299 298 298 298 298 297 297 296 295 295 294 294 294 293 293 293 293 292 292 292 291 291 291 291 291 291 291 291 290 290 290 290 289 289 288 288 287 287 286 286 285 285 285 286 285 286 286 286 287 289 290 291 292 292
312 309 311 316 318 316 316 318 320 317 313 315 317 315 313 311 311 313 313 311 312 313 311 310 310 309 309 308 304 300 300 300 298 297 297 298 298 297 296 295 295 294 294 294 293 293 293 292 292 292 292 292 291 291 291 291 291 290 290 290 290 290 290 289 288 288 288 287 287 286 285 285 284 284 284 285 284 284 284 285 286 287 288 290 291 292
312 310 313 315 316 316 314 315 318 317 315 317 314 310 310 310 310 312 311 310 311 310 309 309 309 307 307 308 304 300 300 300 298 298 297 297 298 297 296 295 295 294 294 293 293 293 292 292 292 292 292 292 291 291 291 290 290 290 290 290 290 290 289 288 288 288 287 286 286 285 285 284 284 283 283 283 284 283 283 284 285 286 287 288 290 291
311 313 316 316 315 315 316 316 316 316 315 316 312 308 308 309 310 311 310 310 308 307 307 308 309 308 309 309 304 301 301 300 299 298 297 296 297 296 295 295 294 294 294 293 293 293 292 292 292 292 292 291 291 291 290 290 290 290 290 290 290 289 289 288 288 287 287 286 285 285 284 284 283 283 282 282 283 283 283 283 284 284 285 287 289 290
310 311 313 315 315 315 317 317 315 315 313 311 310 309 310 311 310 309 308 308 307 307 308 308 308 308 310 310 305 302 302 302 300 298 297 296 296 295 295 295 294 294 293 293 293 292 292 292 292 292 291 291 291 290 290 290 290 290 290 290 289 289 288 288 287 287 287 286 285 284 284 283 283 282 282 282 282 282 282 283 283 283 284 286 287 289
309 307 307 309 311 311 313 310 309 311 310 307 308 310 312 312 310 308 308 307 307 310 310 309 309 307 308 309 305 303 304 304 300 297 297 296 295 295 295 294 294 293 293 293 292 292 292 292 292 291 291 291 290 290 289 289 289 290 290 289 289 288 288 287 287 286 286 285 285 284 283 283 282 282 281 281 281 281 282 282 282 282 282 284 285 287
310 309 309 307 307 308 309 308 308 309 307 307 310 310 311 315 313 310 310 309 309 314 311 306 307 306 307 308 306 304 305 304 301 298 297 295 294 295 294 294 294 293 293 292 292 292 292 292 291 291 291 290 290 290 289 289 289 290 289 289 289 288 288 287 286 286 285 285 284 283 283 282 282 281 281 280 280 280 281 281 281 281 281 282 283 286
315 315 310 307 307 307 309 310 311 310 308 310 312 309 309 316 317 314 314 311 310 314 309 303 305 305 304 307 307 307 305 302 300 298 296 294 294 294 294 294 294 293 293 292 292 292 291 291 291 291 291 290 290 289 289 289 289 289 289 289 288 288 288 287 286 286 285 284 284 283 283 282 282 281 280 280 279 279 280 280 280 280 280 280 281 284
320 318 310 308 309 308 309 312 314 314 310 310 311 311 312 314 315 315 316 314 314 315 308 302 303 305 305 305 306 306 302 298 297 297 295 294 294 295 294 294 294 293 293 292 292 292 291 291 291 290 290 290 289 289 289 289 289 289 289 289 288 288 287 287 286 285 285 284 283 282 282 282 282 281 280 279 279 279 279 278 279 278 278 279 280 281
318 321 317 313 312 309 309 312 317 318 312 309 311 312 313 313 314 316 316 315 315 314 309 303 304 308 308 304 300 299 296 295 295 295 295 295 295 294 294 293 293 293 292 292 292 292 291 291 291 290 290 289 289 289 289 289 289 289 289 288 288 288 287 286 286 285 285 284 283 282 282 282 281 281 280 279 278 278 278 277 277 277 277 278 279 280
314 321 316 308 307 309 310 308 309 312 312 310 307 308 310 311 313 312 311 311 309 308 306 304 306 308 305 299 296 295 294 294 294 294 294 295 294 294 294 293 293 293 293 292 292 292 291 291 290 290 289 289 289 289 289 289 289 289 288 288 288 287 287 286 285 285 284 283 283 282 282 281 281 280 280 279 278 278 277 277 277 277 277 277 278 279
315 319 312 304 304 306 306 304 303 308 313 308 304 308 310 308 307 307 308 308 306 306 306 305 307 307 303 299 295 295 295 294 294 294 293 294 294 294 293 293 293 293 293 293 292 291 291 290 290 289 289 289 289 289 289 289 289 288 288 287 287 287 286 286 285 284 283 282 282 282 281 281 281 280 279 279 278 277 277 276 276 276 276 276 277 278
316 317 311 307 309 304 300 301 301 302 306 307 307 310 309 306 305 306 307 306 305 306 307 306 305 305 305 303 296 294 296 295 294 294 293 293 294 293 293 293 293 293 293 292 292 291 291 290 289 289 289 289 289 289 289 289 288 288 287 287 286 286 286 285 284 284 283 282 281 281 281 281 281 280 279 278 278 277 277 276 276 276 276 276 276 277
314 316 311 306 307 304 300 304 305 301 301 304 306 306 306 307 306 305 306 307 307 307 308 308 305 304 304 303 297 295 296 295 294 294 294 293 293 293 293 293 293 293 293 292 291 291 290 289 289 289 288 289 289 289 289 288 288 287 287 287 286 286 285 285 284 284 283 282 281 280 280 281 281 280 279 278 277 277 276 276 275 275 276 276 276 277
311 316 315 304 302 304 302 305 310 306 300 300 301 302 302 305 305 304 304 305 307 308 308 309 307 306 305 303 300 296 295 295 294 294 295 294 293 293 293 293 293 293 292 292 291 290 290 289 289 289 288 289 289 289 288 288 287 287 287 286 286 285 285 285 284 283 282 281 280 280 280 280 280 280 279 278 277 276 276 275 275 275 275 275 275 276
309 314 315 306 302 304 305 305 308 309 304 301 301 302 301 301 303 305 303 302 304 306 306 306 306 307 305 302 301 298 296 295 295 295 296 294 293 294 293 293 293 292 292 291 290 290 289 289 289 288 289 289 289 288 287 287 287 286 286 286 285 284 284 284 284 283 282 281 280 280 280 280 280 280 278 277 277 276 275 275 274 274 275 275 275 276
311 312 312 308 305 306 308 306 305 307 307 304 302 303 302 301 303 305 303 302 302 303 305 305 305 307 304 300 299 298 297 295 295 296 295 293 293 293 293 293 292 292 292 291 290 289 289 289 289 288 288 288 288 287 287 287 286 286 285 285 284 284 283 283 283 282 281 281 280 279 279 279 279 279 278 277 276 276 275 275 274 274 274 274 275 275
308 309 309 308 308 308 307 304 302 303 303 303 303 303 303 302 302 304 305 305 302 300 301 301 302 304 301 298 298 297 296 295 294 295 294 293 293 293 293 292 292 292 292 290 289 289 289 289 288 288 288 288 287 287 287 286 286 285 285 285 284 284 283 282 282 282 281 280 279 279 279 279 279 279 278 277 276 275 275 274 274 274 274 274 274 275
305 308 309 308 310 310 304 299 298 299 299 300 301 301 302 301 302 303 304 305 304 301 300 300 301 301 300 299 298 296 294 294 295 295 294 293 293 293 292 292 292 292 291 290 289 289 289 288 288 288 288 287 287 287 286 286 285 285 285 285 285 284 283 282 282 281 281 280 279 279 279 279 279 278 277 276 275 275 274 274 274 274 274 274 274 274
308 310 310 309 311 312 307 301 300 300 298 298 299 300 300 300 301 301 301 301 302 301 300 300 301 302 300 299 298 296 295 296 294 294 294 293 293 293 292 292 292 291 290 290 289 289 289 288 288 288 287 287 287 286 286 286 285 284 285 285 284 284 283 282 282 281 281 280 279 280 280 280 279 278 277 276 275 274 274 274 273 273 273 273 273 274
310 311 310 311 313 314 312 310 309 305 299 297 298 299 299 299 299 300 300 300 300 300 300 300 301 301 299 298 299 298 298 298 295 293 293 293 293 292 292 292 291 291 290 289 289 289 289 288 288 287 287 287 286 286 286 285 285 284 285 285 284 283 283 282 282 281 280 280 280 280 280 279 278 277 276 275 274 274 273 273 273 273 273 273 273 273
310 309 307 310 312 313 313 312 309 304 301 301 300 298 298 299 299 299 300 300 300 300 300 300 300 301 300 299 298 297 297 298 296 293 292 293 292 292 292 291 291 291 290 289 289 289 289 288 288 287 287 286 286 286 285 284 284 284 284 284 284 283 283 282 281 281 280 279 280 280 280 279 278 277 276 275 274 273 272 273 273 273 272 272 273 273
309 307 305 307 309 309 311 311 306 303 303 304 303 300 298 298 300 300 300 299 300 301 301 302 301 301 301 300 299 298 297 298 297 293 292 293 292 292 291 291 291 291 290 289 289 289 288 288 288 287 287 286 286 285 285 284 284 284 283 283 283 283 282 281 281 281 280 280 280 280 280 279 278 276 275 274 273 272 272 272 272 272 272 272 272 272
307 308 306 306 306 306 307 307 306 305 303 303 303 301 299 298 299 300 299 299 300 300 301 302 302 301 301 300 299 298 297 297 296 294 293 293 292 292 292 292 291 291 290 289 289 289 288 288 287 287 287 286 285 285 284 284 284 284 284 283 283 282 281 280 280 280 280 281 281 281 280 279 277 275 275 274 273 272 272 271 271 271 271 271 271 271
304 306 305 306 306 305 305 305 305 304 303 303 303 301 299 298 298 298 298 298 298 299 299 300 300 300 300 299 299 298 297 296 295 294 294 293 292 292 292 291 291 290 289 289 289 289 288 287 287 287 286 286 285 284 284 284 284 284 284 283 282 281 281 280 280 280 280 281 281 281 279 278 276 275 274 274 273 272 271 270 270 270 270 270 270 270
302 305 305 305 305 305 305 304 304 302 302 302 302 301 300 299 298 298 297 297 297 298 297 298 298 298 298 298 298 297 297 296 294 293 293 292 292 292 291 291 290 290 289 289 289 288 288 287 287 287 286 285 285 284 283 283 283 283 283 282 281 280 280 280 280 280 280 281 281 280 279 278 275 273 273 273 273 272 271 270 271 270 270 270 270 270
302 303 304 303 305 307 304 302 301 300 299 299 300 300 299 299 299 298 298 298 297 297 297 297 298 298 298 298 298 296 296 295 293 292 292 292 292 291 291 291 290 290 290 289 289 288 287 287 287 286 285 285 284 284 283 282 282 282 282 281 280 280 280 280 280 280 281 281 280 279 279 277 275 273 273 273 273 272 271 270 271 271 270 270 270 270
301 303 304 303 305 306 301 299 298 298 300 302 303 301 299 298 299 298 298 298 298 297 298 298 298 298 298 299 298 298 298 296 293 291 292 291 291 291 291 290 290 290 289 289 288 287 287 287 286 285 285 285 284 283 282 281 281 281 281 280 280 279 280 280 280 280 281 281 280 279 277 276 274 273 272 272 272 271 271 270 271 272 271 271 271 271
300 302 303 303 305 302 297 297 298 300 305 307 303 302 301 299 298 299 299 299 298 298 298 298 298 298 298 298 298 297 296 295 293 292 292 292 291 291 291 290 290 289 289 288 287 287 287 286 286 285 285 284 283 282 282 281 280 280 280 280 279 279 279 280 280 280 281 281 280 278 276 274 273 273 271 271 271 271 270 270 271 272 272 271 271 271
300 301 301 302 303 299 296 297 301 305 307 304 299 299 300 300 299 299 299 299 299 298 298 298 298 298 298 297 296 295 294 293 293 292 292 291 291 291 290 290 289 289 289 288 287 287 286 286 286 285 285 284 282 281 281 281 280 280 280 279 279 279 279 279 280 280 280 280 279 278 276 275 273 272 271 271 272 271 271 271 270 271 272 272 271 271
301 301 301 301 300 299 297 299 304 307 305 302 300 298 297 297 297 298 298 299 298 298 298 298 297 297 298 295 293 293 293 292 292 291 291 291 291 290 290 290 289 289 288 287 287 286 286 286 285 285 284 283 282 281 281 281 280 280 280 279 279 279 279 279 280 280 280 280 279 278 278 277 275 273 271 271 271 270 271 272 272 272 272 272 273 273
302 301 301 301 301 302 300 300 303 304 303 304 303 298 296 297 297 297 299 299 298 297 297 297 297 297 296 293 291 292 292 291 291 291 290 290 290 290 290 290 289 288 287 287 286 286 286 285 285 284 283 283 282 281 281 281 280 279 279 279 279 278 278 279 280 280 280 280 280 280 279 278 276 273 271 270 269 269 270 271 273 273 273 273 273 274
301 301 301 302 303 302 301 301 302 303 304 304 301 297 296 296 296 297 298 298 298 298 296 296 296 296 295 292 290 290 291 292 293 291 289 289 290 290 290 290 289 288 287 286 286 286 286 285 285 284 283 282 281 281 280 280 279 279 278 278 278 278 278 279 280 280 280 281 280 280 279 277 275 272 271 270 270 270 270 271 272 273 273 274 274 275
299 300 300 302 302 301 301 302 302 303 305 302 298 296 295 294 295 297 299 299 298 296 295 295 296 295 294 291 290 290 292 294 294 291 289 289 290 290 290 290 288 287 286 286 286 286 285 285 284 284 283 282 281 280 279 279 278 278 278 277 277 277 278 279 279 280 280 280 279 279 279 277 275 273 271 270 270 271 271 272 273 274 274 274 275 276
298 299 299 300 302 301 300 301 301 303 303 299 296 294 293 293 296 299 303 303 297 293 293 294 294 293 291 290 290 292 293 293 294 292 289 289 290 290 290 289 287 286 286 286 285 285 285 284 284 283 282 281 281 279 278 278 278 277 277 276 276 277 278 278 279 280 280 279 279 278 278 277 275 273 271 270 270 271 271 272 274 275 275 275 276 278
297 298 298 299 300 300 300 301 301 301 301 297 294 292 292 294 298 300 304 302 294 290 292 294 293 292 291 290 290 292 292 292 292 291 290 290 290 290 289 288 287 286 286 285 285 285 284 284 282 281 280 280 280 279 278 278 278 277 276 276 276 277 278 278 279 279 279 279 279 278 278 276 274 272 271 271 271 271 272 272 272 274 275 276 277 279
297 297 298 298 299 299 300 300 299 300 300 295 293 292 293 298 301 300 298 296 293 292 293 293 293 292 292 291 291 292 292 291 291 291 290 290 290 290 288 287 286 286 285 285 285 285 284 283 282 281 280 279 279 279 278 278 277 277 276 275 276 277 278 278 279 279 279 279 278 277 278 277 274 272 271 271 271 271 271 271 271 273 274 275 277 279
298 297 297 297 298 298 298 298 298 300 300 295 292 293 295 299 300 297 293 293 294 294 293 293 293 292 292 292 292 292 291 291 291 291 290 290 290 289 287 286 286 285 285 285 284 284 283 282 281 280 279 279 278 278 277 277 277 276 275 275 276 277 278 278 278 279 279 279 278 277 277 277 274 271 271 272 272 271 270 270 271 273 274 275 276 278
299 299 298 298 298 298 298 298 299 299 297 294 294 295 295 297 297 295 294 293 293 293 293 293 293 293 293 292 292 292 291 291 291 290 290 290 289 288 287 286 286 285 285 284 284 283 282 281 281 280 279 278 277 277 276 276 276 275 274 275 276 277 278 278 278 279 279 279 278 276 277 277 274 271 271 273 274 272 270 270 270 272 274 275 276 277
302 300 300 300 299 299 300 300 298 296 294 293 295 296 295 295 295 296 296 294 293 293 294 293 293 293 293 292 292 291 291 290 290 290 290 289 289 287 286 286 285 285 285 284 283 282 281 281 280 279 278 277 277 276 276 275 275 275 274 275 276 277 277 278 278 279 279 279 277 276 276 276 274 272 273 274 274 272 270 269 270 271 273 274 275 275
301 299 300 301 300 299 300 299 296 294 293 293 295 295 295 295 295 295 295 294 294 294 293 293 293 293 292 292 292 291 291 291 290 290 289 289 288 287 286 286 285 284 284 283 282 281 281 281 280 279 278 277 277 276 275 275 274 274 274 275 275 276 277 277 278 279 278 278 277 276 276 275 273 273 275 275 273 272 270 269 269 270 271 272 272 273
300 298 299 300 301 301 302 301 297 295 294 293 294 294 294 295 295 294 294 294 294 294 293 293 293 293 292 292 291 291 291 291 290 290 289 288 287 286 286 285 284 283 283 282 282 281 281 281 280 279 278 277 276 276 275 274 273 273 274 274 275 276 277 277 278 278 278 277 276 276 275 273 272 273 275 275 274 273 271 270 270 270 270 271 271 272
301 298 298 299 300 301 302 300 296 295 294 294 294 294 294 295 295 294 294 294 294 293 293 293 293 292 292 292 291 291 291 290 290 289 289 288 287 286 285 284 284 283 282 282 281 281 281 281 280 278 277 277 276 275 274 274 273 273 273 274 275 275 276 277 277 277 277 277 276 275 274 273 272 272 273 274 273 272 271 270 269 270 270 270 270 271
300 299 299 299 299 300 300 298 295 294 295 294 293 294 294 295 295 294 293 293 293 293 293 293 292 292 292 291 291 291 290 290 289 289 288 287 286 285 285 284 283 282 282 282 281 280 280 280 279 277 276 276 275 275 274 273 273 273 273 273 274 275 276 276 277 277 276 276 275 275 274 273 272 271 272 273 273 273 272 270 268 268 270 271 271 271
299 300 299 299 299 300 301 298 296 296 297 295 293 293 294 295 295 294 293 293 292 292 293 292 292 292 291 291 291 290 290 289 289 288 288 287 286 285 285 284 283 282 282 281 280 280 279 278 277 276 276 275 275 274 274 273 272 272 272 273 274 275 275 275 276 276 276 275 275 274 273 273 272 272 272 273 272 273 274 274 272 270 269 270 272 272
301 302 300 300 302 302 300 298 297 298 298 296 294 294 295 294 294 293 293 293 293 292 292 292 292 291 291 290 290 290 289 289 289 288 288 287 286 285 284 284 283 282 281 281 280 279 278 278 277 276 275 275 274 274 273 272 272 272 272 272 273 274 274 275 275 275 275 274 274 273 273 273 272 272 272 271 271 271 272 274 276 275 273 271 272 273
Wind_Speed
2 3 2 2 4 3 2 3 5 5 4 4 3 3 5 6 6 7 6 5 4 3 6 7 7 7 7 9 12 18 20 18 19 20 20 19 16 13 10 8 6 4 4 4 3 7 14 17 22 24 27 30 31 31 31 30 30 30 32 31 32 35 40 44 45 46 47 49 53 54 55 54 53 52 52 54 53 50 50 48 47 48 47 45 45 45
3 3 4 6 7 6 4 5 4 3 3 3 3 4 6 5 7 8 6 3 2 1 6 5 6 8 7 8 12 16 15 16 21 21 21 20 17 13 10 9 6 5 1 5 5 8 13 17 22 24 27 30 31 32 33 32 30 30 30 30 34 40 44 46 45 46 47 49 51 52 52 50 50 51 52 55 56 55 56 52 47 46 46 45 45 45
4 4 7 7 6 3 3 4 3 4 3 3 3 2 5 4 5 8 5 2 2 0 4 5 7 8 8 8 10 17 17 17 24 25 23 22 19 14 12 11 7 5 3 5 6 7 12 17 21 23 26 28 30 32 32 32 31 29 30 32 38 43 44 45 45 46 48 50 51 49 46 44 47 52 56 59 61 59 56 50 45 44 45 44 45 45
4 5 7 6 6 2 3 2 2 3 3 4 4 2 5 4 2 5 4 2 2 2 4 6 9 8 8 7 7 16 19 17 21 23 22 21 18 15 14 12 8 6 3 5 5 7 12 17 20 22 25 28 29 30 31 32 32 30 31 35 40 43 43 44 47 48 49 51 51 48 47 48 52 57 59 59 57 50 45 44 43 42 43 43 44 44
7 7 4 4 4 3 1 2 1 3 3 5 6 5 6 4 4 6 3 5 5 4 4 7 9 7 7 9 5 8 11 13 18 20 20 20 17 15 15 13 8 5 1 5 5 8 13 16 19 21 24 26 27 29 31 32 31 30 33 38 41 42 42 45 49 49 48 51 53 53 55 57 59 60 58 54 52 50 47 46 44 42 42 43 44 45
7 5 3 4 2 3 2 3 3 6 3 5 5 7 6 4 4 5 4 5 5 5 4 1 4 7 4 8 7 5 6 10 14 16 18 20 18 17 18 14 7 4 1 4 5 9 12 15 18 21 23 25 27 30 31 32 31 32 37 39 40 41 43 48 49 47 47 51 53 53 55 57 58 59 58 54 53 56 56 53 48 45 42 42 44 45
3 1 4 4 3 2 1 4 4 5 3 4 5 4 4 3 2 5 3 3 2 4 3 3 1 7 2 5 8 8 8 10 10 10 15 21 21 20 19 13 6 3 1 2 5 9 12 16 19 21 23 25 28 31 32 33 34 36 38 39 40 42 46 49 47 46 48 51 52 52 53 54 52 52 55 56 55 55 56 53 49 46 44 41 41 42
2 1 4 4 4 1 3 5 5 6 5 4 4 4 3 0 4 5 3 3 4 2 4 2 3 7 7 5 9 12 11 10 9 9 12 19 23 22 18 11 6 3 1 3 6 10 14 17 19 21 23 25 29 32 34 36 37 38 38 38 41 46 49 48 47 48 49 50 51 52 53 53 52 50 52 55 55 54 53 50 45 44 45 43 40 39
2 1 2 4 2 2 5 5 5 7 3 5 5 3 2 4 6 5 4 6 3 3 6 7 5 5 9 4 6 10 10 11 13 13 11 17 22 21 18 11 6 3 1 4 7 11 14 18 19 20 23 27 30 33 36 38 39 38 38 40 44 48 49 48 47 49 51 51 50 49 51 52 52 51 51 52 52 52 50 48 45 44 44 43 41 40
2 2 4 7 4 5 6 5 6 7 3 4 3 2 3 4 5 4 4 5 2 1 9 7 7 5 7 2 5 6 8 12 13 11 11 17 23 21 17 11 6 3 2 5 7 11 16 18 19 20 25 30 32 35 38 39 38 38 39 43 47 49 49 48 49 51 52 52 49 48 49 50 52 52 52 52 51 49 47 47 47 46 46 43 40 41
2 2 2 4 4 5 5 3 3 4 3 0 2 3 4 4 3 1 2 0 3 4 9 7 10 8 6 2 7 6 7 10 11 9 10 16 21 21 16 11 7 3 2 5 8 13 17 18 18 24 31 33 34 38 40 40 38 38 41 46 50 51 50 50 51 52 52 52 50 49 49 49 51 52 52 52 50 47 46 46 46 46 46 44 40 40
3 1 2 2 4 4 5 1 1 1 1 3 3 3 4 5 2 4 3 3 1 6 6 5 8 9 7 5 6 7 6 7 11 13 14 14 18 21 14 10 7 2 2 5 10 14 16 19 24 31 34 34 36 39 40 39 39 40 43 47 51 52 52 52 53 52 52 52 51 49 49 49 50 51 51 51 49 46 44 45 45 44 45 46 44 41
3 5 3 1 3 5 6 1 3 4 4 4 3 4 3 4 4 3 2 1 3 7 4 1 2 5 10 7 6 10 8 7 12 16 19 18 20 20 14 10 7 2 1 5 10 13 17 24 31 33 32 34 37 38 39 39 39 41 45 48 51 53 53 54 54 53 53 54 52 50 49 50 52 52 51 48 47 45 43 44 44 44 46 47 45 42
4 5 2 1 2 6 8 3 2 2 2 4 3 3 2 1 4 5 4 3 5 6 3 1 2 3 7 5 5 10 7 7 14 20 24 24 22 18 14 10 6 2 1 5 10 15 22 28 31 30 31 34 36 37 37 38 39 42 46 49 51 53 54 55 55 54 54 55 54 51 50 51 53 53 52 49 47 45 44 43 43 45 45 43 43 41
2 6 3 4 2 6 8 5 5 4 4 5 4 5 4 3 2 5 4 4 7 5 4 2 1 4 3 4 5 4 7 11 18 23 24 23 19 16 14 11 6 4 1 7 13 20 26 28 28 29 31 34 35 37 37 37 40 44 47 49 50 53 54 55 55 54 56 58 57 53 51 52 52 52 52 50 48 46 45 44 44 44 43 42 43 40
3 6 5 1 1 6 5 3 5 5 2 3 2 4 2 4 5 4 3 3 3 6 5 3 3 5 3 2 4 5 9 13 17 21 22 20 18 17 14 11 7 3 4 11 18 23 25 25 26 28 31 34 35 36 35 36 40 44 47 48 50 52 54 54 54 54 56 58 57 54 53 53 52 52 52 51 50 49 47 46 45 45 43 42 42 39
2 5 2 2 1 3 3 2 2 2 1 1 2 3 5 4 4 1 3 0 3 4 7 3 4 5 0 1 1 5 6 8 10 13 17 19 18 17 14 10 6 2 8 14 19 21 21 22 25 28 32 34 35 35 34 37 42 45 46 47 50 52 54 54 54 55 57 57 56 55 54 54 54 53 52 52 51 51 49 47 45 46 44 42 41 40
2 4 3 3 2 4 2 1 2 1 3 4 4 4 3 1 2 2 1 2 2 4 6 2 7 8 2 2 3 4 6 7 7 7 12 15 17 16 12 8 3 4 9 13 15 17 19 23 26 30 33 34 34 33 35 39 44 44 45 46 48 51 53 55 56 58 59 57 55 56 55 55 56 55 54 53 52 51 50 48 46 46 45 42 41 41
1 3 5 2 2 3 1 2 3 2 2 4 3 2 1 0 2 2 2 2 2 6 7 3 6 8 5 5 5 8 11 11 9 8 9 11 14 15 11 7 2 4 7 9 13 16 21 24 28 31 33 34 32 32 37 42 44 44 45 47 48 50 52 54 56 58 59 57 55 56 56 55 56 57 55 54 52 51 50 49 48 46 45 43 41 41
2 1 4 0 1 2 2 1 2 2 1 3 1 2 1 2 3 2 2 2 3 6 8 5 6 4 5 7 11 14 14 13 11 9 8 9 13 15 12 7 5 3 4 9 14 19 22 25 28 31 33 33 31 33 39 43 43 44 45 47 48 51 53 55 55 56 57 57 56 56 56 56 57 57 56 54 52 51 50 49 47 45 44 43 41 40
2 2 3 2 2 1 2 4 6 7 4 3 2 2 2 2 1 1 2 3 3 6 6 6 10 6 3 4 10 14 13 13 12 9 7 11 16 16 12 10 7 3 4 10 15 19 22 25 29 32 32 31 32 36 41 42 42 44 46 47 49 51 53 55 56 56 57 57 56 56 55 56 58 58 57 55 51 50 50 47 46 44 43 43 40 38
2 3 4 2 1 3 6 6 7 8 7 6 6 5 6 5 2 3 5 2 3 6 4 5 13 9 2 3 6 10 9 10 12 11 8 14 20 17 13 11 6 2 5 11 16 19 23 26 29 32 31 32 35 39 42 41 42 44 46 48 49 51 52 54 55 56 58 58 56 55 56 56 57 58 56 54 50 49 48 45 45 45 43 43 41 38
3 2 3 5 6 6 6 3 2 4 4 3 4 5 6 5 5 6 7 3 3 4 2 4 13 9 2 5 5 7 9 11 15 14 12 16 20 16 12 9 4 2 6 13 17 20 23 26 29 32 32 35 38 41 42 42 43 44 46 48 50 52 53 53 55 57 57 58 56 55 56 56 57 58 55 53 50 47 45 43 43 44 43 42 41 38
2 2 3 6 6 4 2 2 4 3 3 1 4 5 6 7 8 8 6 2 2 5 3 4 11 8 1 2 5 7 10 14 17 17 16 18 18 14 11 7 3 3 8 14 17 20 23 27 31 33 35 38 40 41 42 43 44 46 47 49 51 53 54 54 56 57 57 58 58 57 57 56 57 57 53 52 50 45 42 42 42 42 42 41 40 39
5 2 3 2 6 6 3 2 3 1 1 3 5 5 8 10 7 3 3 1 4 11 10 7 12 9 2 0 3 7 9 9 12 16 18 18 16 13 10 6 2 5 10 14 17 21 26 30 33 35 36 38 40 41 43 43 45 47 48 50 51 52 55 55 56 58 58 58 59 59 58 58 57 55 52 50 48 43 40 39 40 39 40 41 41 41
7 2 4 4 6 9 9 7 4 2 3 3 3 6 10 11 10 5 3 4 8 13 11 10 14 11 3 2 2 5 7 7 8 12 15 15 15 14 10 6 1 6 12 16 19 24 29 32 34 35 36 38 40 41 43 44 46 48 50 51 52 52 55 56 56 58 59 59 60 60 58 58 57 54 52 50 46 40 37 36 36 37 40 42 41 42
3 2 6 9 10 12 14 11 1 4 3 5 5 9 11 11 14 11 6 8 8 5 10 15 15 15 13 7 6 6 7 7 6 9 14 16 16 14 10 4 2 9 14 17 21 26 30 33 35 37 37 38 40 40 42 45 46 49 51 52 52 53 54 56 57 58 60 60 60 59 58 58 57 55 52 49 45 41 38 37 35 35 38 40 39 38
3 4 10 12 16 19 20 14 2 4 7 12 10 10 11 11 15 15 14 15 7 1 14 21 12 14 20 12 10 11 10 8 6 10 15 17 15 12 7 2 5 11 15 17 22 27 31 34 36 38 39 39 40 41 42 45 46 48 50 52 53 53 53 55 57 59 61 60 59 59 60 59 58 55 52 49 47 44 39 38 38 37 37 38 39 38
3 7 11 11 16 21 19 13 7 6 10 14 15 12 11 14 18 20 21 21 12 9 20 22 12 17 20 12 11 12 9 9 9 10 13 13 12 10 4 2 7 12 14 16 22 27 31 35 36 38 39 39 40 42 44 45 47 49 51 52 53 53 53 54 57 59 60 60 59 60 61 60 58 55 52 50 50 48 43 42 43 42 40 41 44 45
3 6 9 8 12 18 17 10 9 10 12 18 20 15 14 19 21 20 21 20 18 20 25 24 22 26 22 12 13 13 10 11 10 11 13 12 11 8 2 3 7 10 12 14 21 28 31 33 35 36 38 39 40 43 45 46 48 49 51 52 52 53 53 54 56 59 59 59 60 60 60 60 58 56 54 53 52 51 48 46 45 44 43 42 44 45
5 3 2 3 7 15 14 8 8 10 12 20 22 16 16 21 21 20 20 19 18 21 25 24 23 26 21 12 12 15 14 10 9 12 14 14 12 7 1 4 7 8 10 14 22 28 30 31 34 35 37 39 40 42 44 46 47 49 50 51 52 52 53 54 56 58 59 59 60 59 59 59 57 55 55 54 52 51 49 47 46 45 44 42 42 42
5 3 2 5 4 11 7 3 6 6 8 19 26 20 18 20 20 18 18 18 18 19 22 20 17 19 17 7 5 8 10 9 9 13 15 13 11 5 1 4 7 6 8 15 22 27 29 30 32 35 36 38 40 41 43 45 46 48 49 50 51 51 52 54 55 57 58 58 59 59 59 58 56 55 54 53 52 51 49 47 46 45 44 42 41 41
5 4 2 4 4 6 1 4 2 2 5 15 19 16 20 23 22 19 17 20 20 16 15 15 16 17 11 2 5 6 7 7 9 14 17 15 10 4 2 3 4 4 7 16 23 25 28 29 31 33 35 37 39 40 41 43 44 47 48 49 50 50 51 53 55 57 58 58 58 58 57 57 56 56 54 53 53 52 50 48 46 45 45 43 41 40
7 6 4 4 3 2 1 4 4 0 9 12 5 5 16 22 22 21 22 24 21 16 15 17 17 15 9 5 7 7 7 10 13 16 17 13 9 4 1 1 1 3 9 17 22 23 25 28 29 31 33 35 36 38 39 41 42 44 45 47 49 50 51 53 55 56 58 58 59 58 56 56 56 56 54 53 53 52 50 50 49 47 45 44 44 42
9 8 4 3 2 1 2 4 2 7 11 6 2 3 9 14 16 19 23 26 22 17 18 21 20 18 15 11 8 8 10 14 16 16 13 9 6 4 3 4 3 4 13 18 20 21 24 26 28 31 32 33 35 37 38 40 42 43 44 46 48 50 51 53 54 56 57 58 58 57 57 58 58 56 55 54 54 53 51 50 50 49 46 44 44 44
10 8 4 3 2 1 2 3 7 8 12 11 6 5 5 5 7 10 16 22 19 15 16 19 21 20 16 9 6 11 15 17 15 11 9 7 5 5 6 6 2 7 14 16 18 20 22 24 27 29 31 32 34 36 38 40 41 43 44 45 47 49 51 52 54 56 57 58 58 58 59 60 59 57 56 54 54 55 54 50 46 44 43 42 41 41
9 7 4 4 4 3 4 6 7 8 17 21 12 5 7 7 7 8 10 14 11 15 16 18 18 17 10 5 12 18 18 15 9 5 6 8 7 7 8 5 3 9 13 14 16 18 20 22 24 27 29 31 33 35 37 39 40 42 44 45 47 49 50 51 53 55 57 57 58 59 59 60 60 58 56 53 52 53 52 50 47 43 40 39 40 40
7 6 6 6 5 3 4 6 5 6 12 12 5 3 7 8 8 8 5 9 7 15 18 17 15 12 5 8 15 19 16 8 3 5 11 12 11 10 7 2 5 9 11 12 14 16 18 20 22 24 28 30 32 34 35 38 39 41 43 45 46 48 50 51 53 55 57 58 58 59 60 60 59 57 55 52 50 48 46 45 44 43 40 39 39 38
5 2 3 4 5 4 5 6 5 8 11 4 2 2 6 12 11 8 2 7 5 11 16 14 11 8 9 13 16 14 10 5 5 7 15 17 12 10 6 4 7 9 9 11 13 15 17 19 21 23 26 29 31 34 35 37 39 40 42 44 45 47 49 51 52 54 56 58 58 58 59 59 58 55 53 51 49 47 45 42 40 39 39 38 36 35
5 2 2 5 8 8 7 6 5 8 9 3 4 3 9 17 14 7 4 9 5 5 13 14 9 9 15 19 18 11 6 8 7 8 17 17 11 8 6 6 7 7 8 9 12 14 16 19 21 22 25 28 31 33 35 37 39 40 42 43 44 46 48 50 51 53 55 57 58 58 58 58 57 54 52 51 49 47 45 42 41 39 38 35 33 32
2 3 4 7 9 9 9 7 6 8 7 5 8 11 17 17 9 1 6 7 5 7 14 17 14 15 21 23 18 11 9 9 7 10 15 14 10 9 8 8 7 7 7 8 11 14 16 18 20 22 24 27 30 32 35 37 39 40 41 42 44 45 47 49 51 53 55 56 57 57 57 56 55 52 51 50 49 48 46 43 42 40 37 35 32 30
3 2 4 6 6 6 7 5 4 9 7 11 16 20 21 11 2 6 5 9 13 14 16 18 18 19 25 27 23 16 12 10 9 10 13 13 12 11 9 8 7 7 8 9 11 14 15 18 20 21 23 26 29 31 33 36 38 40 41 41 43 44 46 48 50 52 54 55 56 56 56 55 53 51 51 50 48 47 47 44 40 37 35 35 33 29
7 5 4 7 5 4 3 3 3 9 7 22 23 14 12 7 4 8 10 9 13 17 17 19 20 21 24 26 23 17 14 12 11 13 14 14 13 11 9 8 7 7 8 9 11 14 15 17 19 20 23 26 28 30 32 35 37 39 40 40 42 43 45 47 49 50 52 54 55 56 55 55 53 51 50 49 46 45 45 42 38 36 34 33 32 30
7 7 5 6 6 6 5 9 7 5 9 30 25 9 14 19 11 14 15 8 10 17 19 18 21 23 25 25 22 18 16 16 17 18 17 15 13 11 10 8 7 8 8 9 11 13 15 17 19 20 22 25 27 29 31 34 36 38 38 39 41 43 44 46 48 50 52 53 54 55 55 54 53 50 49 48 44 42 42 41 38 36 33 31 31 33
12 11 4 3 8 7 6 9 6 2 15 34 26 11 19 27 16 11 15 15 15 19 19 18 21 25 25 23 21 20 20 20 22 21 18 15 13 11 10 9 8 8 8 9 11 13 15 17 19 21 21 23 26 28 30 32 35 36 37 38 40 41 43 45 47 49 51 53 54 54 54 54 52 50 50 48 44 42 42 41 38 36 35 33 33 34
8 7 3 1 5 5 8 9 6 6 14 31 30 17 16 24 21 15 16 17 18 19 18 19 22 25 26 24 21 21 23 23 23 22 18 15 13 12 11 10 9 9 8 9 11 13 15 17 19 21 22 23 25 28 29 30 32 34 36 37 38 40 41 44 46 48 50 52 53 53 53 53 52 51 51 48 44 42 40 38 37 36 36 36 34 33
5 8 6 3 4 4 7 10 11 12 17 27 31 23 15 18 23 23 20 18 17 18 18 19 21 25 27 24 21 21 23 24 23 22 19 16 14 13 11 10 10 9 8 9 10 12 15 17 19 21 23 24 26 28 29 30 31 32 33 35 37 38 40 41 44 46 48 50 52 53 52 51 51 52 52 50 46 43 39 36 35 35 35 36 35 34
7 13 10 10 10 8 7 4 8 15 23 28 31 27 21 20 23 23 23 21 18 17 18 20 22 25 26 24 22 21 22 23 24 21 18 16 15 13 11 10 9 8 7 8 10 13 15 18 19 21 23 25 26 28 29 29 30 31 32 33 35 36 38 40 41 44 46 48 50 51 51 50 49 51 52 51 48 46 43 39 37 35 33 32 32 34
11 13 9 9 11 11 11 4 7 7 12 20 27 30 29 29 27 23 22 22 19 18 19 21 23 25 24 22 22 22 21 23 22 18 16 16 15 12 11 10 8 7 7 8 10 13 15 17 19 20 22 24 26 27 28 29 29 30 31 32 34 35 37 38 39 41 44 46 48 50 50 49 49 49 51 51 49 48 44 40 37 36 33 29 27 28
12 10 7 6 9 13 14 11 13 8 5 12 25 32 33 32 29 25 22 21 20 19 20 22 24 24 22 21 21 21 22 21 19 16 16 15 14 12 11 9 8 7 6 8 10 12 14 16 18 19 21 23 25 26 27 28 29 29 30 30 32 34 36 37 39 40 42 44 46 48 49 49 49 48 49 50 51 50 46 39 33 32 34 32 27 22
15 15 12 12 12 12 10 16 23 15 5 8 23 33 35 32 30 27 25 24 22 20 21 23 25 25 24 23 21 21 21 18 16 15 15 14 14 12 10 9 8 6 6 8 10 12 14 15 17 19 20 22 24 25 26 27 28 28 29 29 31 32 33 35 37 38 40 42 44 45 46 47 47 48 48 49 50 51 51 46 36 29 29 31 31 26
Wind_Direction
69 47 350 262 236 209 211 204 205 219 212 228 246 243 246 257 273 269 270 258 167 168 251 232 233 252 207 195 202 184 174 171 165 164 165 163 161 158 152 143 130 122 63 27 281 317 337 343 352 354 354 355 354 355 354 351 348 347 344 340 338 335 334 334 331 328 326 327 329 328 325 322 319 316 313 313 313 313 311 308 305 301 298 297 297 296
66 15 273 222 206 198 221 236 223 236 252 257 249 268 274 255 260 270 264 239 151 176 267 250 245 257 231 213 203 179 172 179 176 172 170 165 162 162 160 153 138 152 133 5 317 311 335 343 351 353 352 353 352 353 354 352 350 347 342 336 334 333 332 333 332 330 327 326 326 325 323 321 317 314 312 312 310 309 308 305 302 300 297 294 294 294
10 296 254 219 196 207 256 238 212 228 241 256 256 279 282 262 264 286 284 186 108 291 270 280 269 257 245 237 204 183 185 189 184 179 173 167 164 166 166 164 153 167 209 341 336 322 336 344 351 351 350 352 351 351 352 352 351 346 340 335 332 330 330 332 332 330 327 324 324 324 323 320 314 310 309 308 307 308 309 305 299 297 296 293 291 291
319 266 235 197 175 184 295 259 186 229 258 247 244 257 264 269 271 282 305 330 318 268 242 274 275 258 239 242 209 191 189 180 183 181 173 171 170 170 172 170 166 171 215 337 345 335 339 345 349 349 348 350 350 351 351 351 350 343 336 332 329 327 327 329 330 329 325 323 323 323 319 315 311 309 310 310 311 314 314 309 304 299 296 293 291 290
268 260 202 148 147 156 236 309 166 199 272 258 221 221 242 253 233 237 286 331 321 304 277 287 289 271 216 209 202 187 176 165 173 172 167 174 176 174 176 172 166 166 310 352 354 343 344 346 346 345 345 348 350 351 350 349 346 338 331 328 327 326 325 325 327 328 325 323 323 322 320 319 319 318 319 318 316 314 311 308 306 303 299 294 291 288
266 262 148 127 91 111 173 267 218 185 243 288 239 218 216 205 236 265 332 360 340 309 294 316 296 285 213 187 192 167 159 169 171 166 168 175 176 177 176 168 153 138 13 351 354 346 346 347 344 343 344 347 350 350 349 345 340 332 327 327 328 326 324 325 326 327 325 324 324 323 323 323 323 321 320 317 314 311 309 306 301 297 298 297 293 288
258 2 86 118 126 104 225 257 237 180 168 285 252 186 161 142 271 290 331 6 285 265 280 95 221 278 274 173 188 175 176 188 182 176 179 179 181 183 176 166 155 136 69 341 346 348 350 348 343 342 345 347 348 348 345 340 335 330 328 329 329 327 326 326 326 326 326 326 326 325 324 323 322 318 316 314 312 310 309 310 305 296 292 294 296 292
190 64 48 90 116 176 257 263 231 159 143 251 241 136 118 123 273 267 246 240 243 275 294 243 203 268 279 228 189 173 181 197 196 196 190 187 190 185 174 166 158 148 40 351 351 352 352 347 344 343 345 348 347 344 340 336 333 330 330 330 328 327 327 327 326 326 327 328 326 325 324 323 322 318 314 314 312 309 308 310 310 302 293 289 291 294
189 172 212 152 118 230 232 233 193 143 150 247 215 162 203 230 242 248 233 249 272 16 286 239 172 246 273 245 167 166 186 209 207 200 194 191 189 178 169 167 154 144 1 356 354 352 350 346 343 343 347 351 347 341 337 334 332 330 330 328 328 328 327 326 325 326 327 328 325 324 323 322 322 319 315 314 312 309 308 307 306 303 298 293 290 291
256 191 189 154 160 233 225 217 176 149 204 242 200 224 277 249 244 232 225 259 16 5 261 231 165 218 266 217 144 165 206 219 211 196 192 192 184 172 164 162 155 155 5 359 354 349 347 344 341 344 351 352 345 338 335 334 332 330 328 327 328 328 327 326 326 326 328 329 326 324 324 323 322 321 318 317 315 310 307 306 306 305 301 296 294 291
277 167 166 160 194 204 178 189 180 167 202 177 47 342 327 292 271 148 198 38 55 263 258 220 182 202 270 240 161 178 218 211 194 177 184 191 179 168 163 160 161 162 17 358 350 346 342 340 343 350 353 349 341 336 335 333 331 328 327 327 328 328 327 326 326 327 328 329 327 325 324 323 322 322 320 318 316 312 308 306 306 307 304 298 293 292
329 220 233 210 191 144 111 138 293 1 61 69 62 28 344 310 354 39 6 54 111 256 263 227 198 198 239 245 187 214 238 188 176 175 180 185 170 162 161 161 165 162 14 355 347 341 338 343 351 354 351 344 337 334 333 332 330 328 326 327 327 328 328 327 327 327 328 328 327 325 324 323 322 322 321 318 316 311 307 307 306 306 305 303 294 287
306 244 254 71 174 155 121 59 329 356 43 81 83 64 6 319 349 355 311 144 217 249 249 179 166 214 240 249 208 222 238 192 178 177 174 168 160 160 161 160 164 159 1 350 341 336 343 353 355 353 345 339 335 333 332 332 330 328 326 326 327 328 328 327 327 327 328 329 327 325 323 323 323 322 321 319 316 312 307 305 306 305 304 304 300 290
300 297 292 56 268 185 155 149 237 269 121 140 133 123 159 308 325 298 276 267 273 268 251 133 51 276 263 277 232 214 214 178 164 164 164 158 154 160 162 161 166 159 332 335 337 344 355 357 353 346 339 335 333 332 333 332 329 326 324 326 327 328 328 327 327 327 328 328 327 324 323 323 323 322 321 318 315 312 308 304 303 304 304 301 301 296
242 305 242 190 225 171 173 189 174 149 150 188 166 139 165 169 229 272 271 268 289 290 257 235 296 243 223 299 283 185 131 128 139 146 150 151 154 160 160 162 171 173 286 335 346 354 358 354 346 340 335 334 333 333 333 331 328 325 324 326 327 327 327 326 327 327 327 327 326 324 323 323 322 322 321 318 315 312 308 305 302 302 303 299 298 300
201 258 241 230 133 152 183 216 147 114 116 234 131 112 193 186 192 255 231 200 296 307 273 215 224 228 192 334 350 103 114 119 132 140 145 152 158 160 161 166 174 192 329 346 352 355 353 346 339 335 334 334 333 333 332 328 326 324 324 327 327 326 326 326 326 325 324 325 325 324 322 323 323 322 321 318 315 313 309 306 304 301 300 298 297 298
244 268 260 30 337 172 182 212 157 128 156 198 132 178 228 185 153 249 271 114 55 299 275 215 246 273 3 327 349 117 125 131 142 148 151 158 161 161 166 171 181 273 342 349 351 349 344 338 334 334 335 335 333 332 329 325 324 324 325 326 326 327 327 327 326 323 323 324 325 324 323 323 323 321 320 318 315 313 311 306 304 303 301 298 297 295
223 273 240 148 229 240 202 334 316 346 128 147 187 226 228 123 103 133 264 331 64 262 268 194 243 262 198 219 230 159 164 174 180 171 159 163 164 166 170 174 199 328 343 342 343 341 336 334 334 336 337 335 333 330 325 322 324 325 326 326 325 326 328 327 326 324 324 325 325 323 323 323 324 322 319 318 315 313 311 307 304 305 303 299 297 295
128 279 269 158 199 252 49 31 319 324 106 146 202 255 108 169 256 148 153 257 230 265 270 228 248 248 202 195 198 190 195 192 190 181 172 174 170 168 171 175 219 319 327 329 338 338 336 337 337 338 337 334 331 325 322 323 325 326 326 327 326 327 328 327 326 325 324 325 324 322 322 323 323 322 319 318 316 313 310 307 305 304 304 301 298 297
120 239 277 291 240 275 37 77 209 235 58 91 40 327 35 198 223 181 160 186 206 265 273 288 295 260 200 189 183 193 200 188 183 185 183 185 177 172 173 180 197 240 303 330 340 339 338 338 338 339 337 333 327 321 323 325 326 326 327 328 329 328 328 328 327 325 324 324 324 322 322 323 323 322 320 317 315 313 310 307 305 303 303 302 299 299
108 202 250 315 334 252 192 199 192 191 176 140 165 235 224 208 204 257 236 153 192 253 263 288 285 258 189 183 179 188 195 183 177 181 184 183 177 175 178 182 190 219 317 338 341 340 340 338 339 340 336 330 322 321 325 326 326 327 328 329 329 328 328 329 328 327 325 324 324 324 322 323 323 322 320 317 315 312 310 308 306 303 303 303 299 298
156 195 224 257 264 224 227 224 198 189 183 177 188 194 200 203 184 267 260 187 195 238 218 250 270 263 195 174 174 174 179 175 174 176 180 179 175 175 180 179 180 246 329 340 341 342 342 341 341 339 334 326 323 325 328 328 327 328 329 330 330 329 329 329 328 327 326 325 325 324 323 322 323 322 320 318 315 313 310 307 306 304 303 303 299 297
146 142 227 251 245 234 240 244 178 173 165 180 211 193 184 190 180 215 244 224 202 241 193 235 265 273 163 147 155 159 163 168 177 179 175 177 177 174 175 172 173 292 329 340 343 344 344 343 342 338 332 326 325 328 329 329 329 329 330 331 331 330 330 329 329 328 326 325 325 324 323 322 323 323 321 318 315 313 310 305 305 305 302 301 300 297
128 130 227 265 284 264 250 20 37 58 85 222 239 188 182 211 208 216 236 201 196 235 204 233 259 266 257 148 147 152 163 168 181 186 177 174 174 172 171 174 199 303 335 343 346 347 346 345 343 337 331 327 327 330 330 329 330 330 330 332 332 332 331 330 330 329 326 326 326 325 325 324 325 324 322 319 316 313 309 305 303 304 303 301 299 297
173 186 182 266 309 293 282 352 352 343 157 224 233 188 204 223 216 248 280 145 248 243 222 232 257 252 230 136 142 144 159 173 185 187 177 170 170 171 175 179 221 324 343 348 348 349 348 346 342 335 329 328 328 330 331 330 331 331 331 332 333 333 332 331 330 329 327 326 326 327 326 326 327 326 322 319 316 312 310 306 304 303 303 301 298 297
175 202 170 199 273 273 274 286 280 220 186 215 223 200 211 212 197 211 238 200 237 247 227 226 249 254 225 150 207 182 178 190 185 172 169 172 175 177 179 182 251 341 349 351 350 350 349 344 338 332 328 328 330 331 332 331 331 332 331 332 333 333 332 332 331 329 328 327 327 328 327 327 328 326 323 319 316 312 310 309 304 301 302 302 300 299
142 265 206 212 232 243 258 267 223 122 202 242 228 208 208 206 203 210 219 221 227 254 253 240 240 258 259 229 217 215 194 201 197 167 168 175 178 177 175 181 322 346 349 350 350 349 346 341 335 331 329 329 331 331 331 332 332 332 331 332 333 333 332 332 331 329 328 327 327 328 329 328 328 327 324 321 316 311 309 309 305 300 300 302 300 298
101 251 225 221 232 242 255 262 205 144 241 257 254 229 214 207 211 215 220 229 218 127 260 253 233 247 256 242 223 227 219 222 209 176 179 181 179 179 177 209 327 343 346 348 350 348 344 338 333 331 329 330 332 332 332 333 333 332 331 332 333 333 333 332 331 329 328 328 329 331 331 330 329 327 324 322 318 314 310 308 306 302 298 297 296 294
126 246 233 222 239 249 257 265 261 247 255 260 257 243 227 219 218 222 228 233 226 219 251 262 258 252 254 245 235 233 217 222 218 194 196 195 184 182 185 308 331 343 346 349 350 346 340 335 331 329 329 331 333 334 334 333 333 332 331 331 333 334 334 333 331 329 329 330 332 334 333 331 329 326 324 322 319 315 311 308 307 305 300 295 294 293
147 251 243 223 249 259 258 257 259 256 260 263 256 240 233 234 229 229 235 237 234 238 252 265 268 265 262 251 251 252 230 221 215 197 196 189 178 179 190 328 338 345 348 350 348 342 336 331 329 328 330 332 334 334 334 333 332 332 331 331 333 334 334 333 331 329 330 331 333 333 333 331 329 326 325 323 320 316 313 310 309 308 303 299 296 294
192 239 231 171 252 268 261 243 237 243 251 261 260 241 230 242 243 238 239 238 237 243 251 257 262 267 267 257 258 259 244 221 193 184 187 181 172 171 191 328 340 345 348 348 342 335 331 328 328 329 331 333 335 335 334 332 331 331 331 332 333 334 334 333 331 330 331 333 333 333 332 331 328 325 323 322 320 318 315 313 312 311 308 305 302 298
204 225 69 103 237 265 262 209 229 254 267 267 265 248 228 236 241 236 234 232 229 235 248 255 255 260 266 260 231 231 216 195 184 183 178 169 167 174 250 324 340 345 347 343 335 330 329 327 328 331 332 334 335 334 333 331 330 331 331 332 333 334 334 333 332 333 334 334 334 334 333 331 327 323 321 322 322 320 318 317 315 315 313 309 306 302
176 193 158 136 219 270 335 111 133 39 305 272 263 235 217 225 235 239 243 239 228 224 239 246 243 252 267 232 174 195 184 179 189 182 172 166 167 180 292 320 336 336 337 336 331 328 327 327 330 331 332 334 334 333 332 330 329 330 330 332 333 334 334 334 334 334 335 336 336 336 333 328 326 324 322 323 325 322 321 320 318 318 318 314 310 307
184 193 194 169 194 252 139 104 90 4 266 267 272 185 201 214 224 231 240 241 230 219 228 241 251 260 265 216 195 198 187 188 189 181 175 173 173 181 259 245 223 315 331 331 328 326 326 328 332 332 333 334 332 330 330 328 328 330 330 332 333 334 335 336 336 336 337 337 337 336 333 328 326 326 325 325 327 325 324 324 322 321 321 318 315 311
184 190 196 180 171 189 140 87 120 236 251 254 111 154 203 208 213 223 239 245 235 224 232 244 253 255 251 245 225 198 185 180 176 173 169 170 186 197 191 181 185 321 329 327 325 326 328 330 333 334 333 333 332 330 329 328 329 330 332 334 334 335 337 337 338 338 337 337 338 337 334 331 329 328 328 329 330 328 326 325 322 320 320 318 316 313
177 183 184 167 166 164 141 173 214 256 299 294 250 179 162 195 202 216 252 255 234 219 230 237 245 249 249 250 205 175 168 157 154 163 169 179 202 189 169 171 202 324 324 324 324 327 331 332 333 332 332 332 331 330 329 329 330 331 333 336 336 336 338 339 340 340 338 338 339 338 337 335 333 331 332 333 332 329 327 325 321 318 318 318 316 313
175 179 174 179 203 187 177 214 242 306 312 293 268 178 158 193 178 177 253 264 215 199 220 230 238 246 239 179 148 151 150 143 140 157 169 177 184 170 166 178 308 323 319 321 324 328 331 332 332 332 332 331 330 329 329 329 331 332 334 337 337 337 339 341 342 341 339 340 342 341 339 338 336 334 334 334 333 329 327 325 322 320 320 319 316 315
186 186 174 189 215 177 181 238 267 281 277 273 264 197 190 188 151 141 253 276 198 187 209 222 229 229 190 138 146 146 142 147 197 186 167 172 178 173 173 225 308 315 316 318 323 328 331 332 335 335 332 330 329 329 330 330 332 334 336 338 339 339 341 343 343 341 341 342 343 343 341 339 337 335 335 335 334 331 327 324 320 320 323 322 317 315
188 203 168 199 223 184 194 228 226 241 254 236 142 232 170 148 130 97 341 277 227 191 202 210 217 203 156 150 159 150 142 182 237 195 174 176 183 186 199 275 295 302 310 315 320 328 332 335 337 336 333 331 330 331 331 332 333 336 338 339 340 341 343 344 343 342 342 344 344 343 342 341 339 338 336 336 336 333 329 325 322 323 327 325 320 316
179 184 165 213 224 204 205 226 228 248 254 175 135 184 145 138 127 83 317 267 252 189 192 195 200 183 161 159 161 156 174 208 222 193 179 181 191 205 231 266 277 288 301 312 320 326 331 334 336 337 336 334 333 333 333 333 335 338 340 341 342 344 344 344 344 345 344 345 345 345 344 343 341 340 338 338 338 335 331 330 330 330 331 329 324 320
187 192 192 217 228 214 212 226 248 265 249 164 150 160 142 127 115 143 249 227 174 171 184 186 192 183 167 164 168 180 203 205 191 177 176 185 204 220 241 260 267 283 299 311 321 327 330 333 336 338 337 335 335 336 335 335 336 339 341 343 345 346 345 344 345 347 346 346 347 346 346 345 343 342 342 341 340 337 335 336 335 333 334 335 331 324
174 177 208 223 223 215 222 229 267 279 243 159 155 158 147 133 250 238 189 136 143 167 181 186 192 185 175 177 182 186 186 175 167 173 181 196 214 222 238 256 266 283 297 309 320 325 329 333 336 338 337 337 338 338 338 337 338 340 343 345 347 346 346 346 348 348 348 348 348 348 348 348 347 346 344 342 342 339 337 337 338 337 339 340 338 332
165 153 200 215 191 175 217 196 230 273 206 149 147 153 161 186 220 158 139 132 152 166 176 187 191 186 182 184 184 179 174 172 182 191 193 202 213 219 231 246 260 277 292 308 317 322 328 332 336 340 340 340 340 341 340 339 339 341 345 347 348 347 347 348 349 350 350 350 350 350 350 350 351 350 347 344 344 342 339 341 344 345 346 345 344 343
171 172 191 208 174 150 189 199 207 274 162 154 154 167 198 203 184 138 147 172 172 170 177 185 190 191 190 188 182 177 178 183 192 195 198 207 214 216 227 242 255 268 286 304 313 321 329 331 335 341 343 343 342 343 343 342 341 343 346 348 349 349 349 350 351 352 353 353 353 353 353 354 354 352 349 348 348 346 345 348 351 351 351 351 349 348
199 190 167 188 185 176 213 217 195 121 163 173 179 193 193 195 192 163 169 178 177 182 187 187 190 193 192 189 185 184 188 192 196 199 204 212 214 214 226 239 248 262 282 301 311 321 328 331 336 342 346 347 345 344 345 344 342 344 346 349 350 350 351 352 353 354 355 355 356 355 355 357 358 356 354 354 353 352 353 354 355 356 357 358 353 348
212 188 113 121 197 225 272 251 197 147 174 186 196 210 199 192 194 195 192 186 185 192 195 195 196 193 189 188 188 191 196 198 198 202 207 209 209 215 227 238 247 261 279 296 311 323 329 332 337 343 347 349 346 346 347 346 344 346 348 349 351 352 353 353 354 356 357 358 358 358 357 359 0 360 359 358 357 358 0 1 0 0 1 1 356 350
211 179 179 205 171 180 252 235 193 186 191 191 199 210 211 201 202 206 209 204 200 204 205 206 205 197 192 193 193 195 201 201 199 203 206 205 208 215 225 237 248 261 280 300 317 326 329 333 339 344 349 350 348 347 348 347 347 348 350 351 352 353 354 356 356 358 0 1 1 1 1 2 3 2 2 1 0 3 7 9 8 5 4 2 357 353
180 161 180 218 208 201 234 226 172 190 198 196 200 205 206 208 211 212 214 214 214 216 214 212 208 200 196 198 200 200 202 202 202 204 203 201 206 214 224 236 248 262 285 308 323 328 330 335 342 347 349 349 348 348 347 347 348 350 351 354 354 354 355 358 359 1 2 4 4 3 4 5 5 5 5 4 4 7 11 13 13 11 9 7 1 354
140 153 177 204 207 227 249 229 130 169 208 207 206 206 207 212 215 213 213 216 215 215 213 209 206 203 201 201 204 204 203 202 202 203 200 200 205 213 223 236 249 264 288 314 326 329 332 337 343 348 350 350 348 347 347 348 349 351 353 355 356 355 356 358 1 3 5 6 6 6 7 7 8 9 8 7 7 10 13 16 18 16 14 15 13 2
145 182 186 159 189 227 239 200 163 171 229 210 203 207 210 213 213 209 206 208 210 212 211 204 199 199 201 204 207 207 205 202 200 199 199 202 208 216 225 239 254 270 299 322 327 329 333 339 345 349 350 349 348 347 348 349 350 352 355 357 358 358 357 358 1 4 6 7 9 9 9 10 11 12 12 12 12 12 14 19 26 27 22 21 22 16
190 204 185 177 208 230 216 183 181 195 228 193 197 207 211 210 210 207 206 209 213 213 212 206 200 198 200 204 208 210 208 204 199 200 203 206 212 220 227 240 257 280 308 322 327 332 336 340 346 350 350 348 348 348 349 349 350 353 356 359 0 0 359 360 3 5 7 9 11 11 11 12 13 14 15 17 18 17 16 17 24 33 34 31 29 26